Zurück zum Katalog

CZ-6A DEB

AktivPO
NORAD 54611·DEBRIS·🇨🇳 China

Gestartet Nov 11, 2022 von Taiyuan Satellite Launch Center

Loading…

Nächste Überflüge (nächste 24 Stunden)

TLE

AktuellSource: Space-Track

Epoche: Sep 12, 2026, 05:22 UTC

1 54611U 22151NM  26255.22370120  .00047654  00000-0  23064-2 0  9998
2 54611  98.6028   5.0219 0039084 223.8186 135.9942 15.17733129205024

Verfolge CZ-6A DEB in Echtzeit mit AllMySat

Download on the App Store